sat.trackr.live / text

‹ back to catalog

ISS OBJECT YM

NORAD 69797 · 1998-067YM

PAYLOAD ACTIVE UNKNOWN

§ Identity

Operator
Country
TBD
Launch date
1998-11-20
Launch site
TYMSC
Launch vehicle
Mass (kg)
RCS (m²)

External: N2YO · Heavens-Above · Gunter

§ Orbital elements

Epoch: 2026-09-19T04:39:14.581728Z

Period
92.55 min
Inclination
51.6291°
Eccentricity
0.0010700
Mean motion
15.55842534 rev/d
Perigee alt
392.5 km
Apogee alt
407.0 km
Semi-major
6,777.8 km
B*
5.9015e-4
RAAN
192.8112°
Arg perigee
163.0379°
Mean anomaly
197.0972°
Rev number
1,223

§ Raw data

ISS OBJECT YM1 69797U 98067YM  26262.19391877  .00041425  00000+0  59015-3 0  99992 69797  51.6291 192.8112 0010700 163.0379 197.0972 15.55842534 12230

JSON: /api/v1/satellites/69797 · /tle

For live sub-satellite position, see the globe view (requires WebGL).

§ Visibility from observer

Set your observer location to see the next 7 days of passes ≥ 10°. The values pass through the URL so the page stays shareable.

No JS? Fill the form by hand. The geolocation button needs JavaScript.